TimePDT,TemperatureF,Dew PointF,Humidity,Sea Level PressureIn,VisibilityMPH,Wind Direction,Wind SpeedMPH,Gust SpeedMPH,PrecipitationIn,Events,Conditions,WindDirDegrees,DateUTC
12:53 AM,66.0,45.0,47,29.86,10.0,NNW,9.2,-,N/A,,Clear,330,2013-07-06 07:53:00
1:53 AM,64.9,46.0,50,29.87,10.0,NW,10.4,-,N/A,,Clear,320,2013-07-06 08:53:00
2:53 AM,64.0,46.0,52,29.87,10.0,NW,8.1,-,N/A,,Clear,320,2013-07-06 09:53:00
3:53 AM,61.0,46.0,58,29.88,10.0,WNW,5.8,-,N/A,,Clear,300,2013-07-06 10:53:00
4:53 AM,60.1,46.0,60,29.88,5.0,NNW,5.8,-,N/A,,Haze,330,2013-07-06 11:53:00
5:53 AM,52.0,45.0,77,29.89,10.0,WNW,3.5,-,N/A,,Clear,290,2013-07-06 12:53:00
6:53 AM,64.0,48.0,56,29.89,6.0,NNW,5.8,-,N/A,,Haze,330,2013-07-06 13:53:00
7:53 AM,66.9,46.9,49,29.90,10.0,NW,6.9,-,N/A,,Clear,320,2013-07-06 14:53:00
8:53 AM,70.0,48.0,46,29.90,10.0,Variable,3.5,-,N/A,,Clear,0,2013-07-06 15:53:00
9:53 AM,73.9,48.0,40,29.88,10.0,WSW,4.6,-,N/A,,Clear,250,2013-07-06 16:53:00
10:53 AM,78.1,46.9,33,29.88,10.0,Calm,Calm,-,N/A,,Clear,0,2013-07-06 17:53:00
11:53 AM,81.0,45.0,28,29.86,10.0,South,3.5,-,N/A,,Clear,190,2013-07-06 18:53:00
12:53 PM,84.0,44.1,25,29.84,10.0,Calm,Calm,-,N/A,,Partly Cloudy,0,2013-07-06 19:53:00
1:53 PM,87.1,44.1,22,29.82,10.0,Variable,3.5,-,N/A,,Clear,0,2013-07-06 20:53:00
2:53 PM,88.0,46.0,23,29.81,10.0,WNW,6.9,-,N/A,,Partly Cloudy,300,2013-07-06 21:53:00
3:53 PM,88.0,44.1,22,29.79,10.0,South,5.8,-,N/A,,Partly Cloudy,180,2013-07-06 22:53:00
4:53 PM,89.1,46.0,22,29.78,10.0,SSE,6.9,-,N/A,,Partly Cloudy,160,2013-07-06 23:53:00
5:53 PM,88.0,46.0,23,29.77,10.0,SSE,8.1,-,N/A,,Partly Cloudy,160,2013-07-07 00:53:00
6:53 PM,87.1,48.9,27,29.76,10.0,South,6.9,-,N/A,,Partly Cloudy,180,2013-07-07 01:53:00
7:53 PM,82.9,48.9,31,29.76,10.0,South,5.8,-,N/A,,Partly Cloudy,180,2013-07-07 02:53:00
8:53 PM,80.1,46.9,31,29.77,10.0,Calm,Calm,-,N/A,,Partly Cloudy,0,2013-07-07 03:53:00
9:53 PM,69.1,52.0,54,29.78,10.0,West,4.6,-,N/A,,Clear,280,2013-07-07 04:53:00
10:53 PM,69.1,51.1,53,29.80,10.0,WSW,6.9,-,N/A,,Clear,240,2013-07-07 05:53:00
11:53 PM,66.9,50.0,54,29.81,10.0,West,3.5,-,N/A,,Clear,260,2013-07-07 06:53:00